Home > Weather > Groningen > Past weeks

Flag for Netherlands Past Weather in Groningen, Netherlands — Yesterday and Last 2 Weeks

Now
55 °F

Overcast.


Feels Like: 54 °F
Forecast: 48 / 62 °F
Wind: 7 mph from Southwest

Location: Groningen Eelde Airport

Current Time: May 25, 2016 at 1:19:03 PM

Latest Report: May 25, 2016 at 12:55 PM


Visibility: N/A

Pressure: 29.95 "Hg

Humidity: 88%

Dew Point: 52 °F

Location of GroningenLocation

Past Weather in Groningen — Graph

°F

Groningen Temperature Yesterday

Maximum temperature yesterday: 52 °F (at 11:25 AM)
Minimum temperature yesterday: 50 °F (at 12:25 AM)
Average temperature yesterday: 50 °F

High & Low Weather Summary for the Past Weeks

 TemperatureHumidityPressure
High77 °F (May 11, 2:25 PM)100% (May 19, 4:25 AM)30.09 "Hg (May 19, 4:25 AM)
Low37 °F (May 16, 4:55 AM)30% (May 11, 4:25 PM)29.56 "Hg (May 12, 6:55 PM)
Average56 °F76%29.86 "Hg
* Reported May 10 11:25 AM — May 25 11:55 AM, Groningen, Weather by CustomWeather, © 2016

Note: Actual official high and low records may vary slightly from our data, if they occured in-between our weather recording intervals... More about our weather records

Advertising

Groningen Weather History for the Previous 24 Hours

Scroll right to see more
 ConditionsComfort  
Time TempWeatherWind HumidityBarometerVisibility
11:55 AM
Wed, May 25
54 °FOvercast.6 mph88%29.95 "HgN/A
11:25 AM54 °FMostly cloudy.3 mph94%29.95 "HgN/A
10:55 AM54 °FFog.6 mph88%29.95 "Hg3 mi
10:25 AM54 °FMore clouds than sun.7 mph88%29.95 "HgN/A
9:55 AM54 °FMore clouds than sun.6 mph88%29.95 "HgN/A
9:25 AM54 °FBroken clouds.2 mph94%29.95 "HgN/A
8:55 AM54 °FMostly cloudy.3 mph94%29.95 "HgN/A
8:25 AM54 °FMostly cloudy.5 mph94%29.95 "HgN/A
7:55 AM52 °FCloudy.3 mph100%29.95 "Hg4 mi
7:25 AM52 °FMostly cloudy.3 mph100%29.95 "Hg4 mi
6:55 AM52 °FFog.3 mph94%29.95 "Hg3 mi
6:25 AM52 °FFog.3 mph94%29.95 "Hg3 mi
5:55 AM50 °FFog.3 mph100%29.95 "Hg3 mi
5:25 AM50 °FFog.2 mph100%29.95 "Hg3 mi
4:55 AM50 °FFog.5 mph100%29.95 "Hg2 mi
4:25 AM50 °FFog.5 mph100%29.95 "Hg2 mi
3:55 AM50 °FFog.3 mph100%29.95 "Hg2 mi
3:25 AM50 °FFog.5 mph100%29.95 "Hg2 mi
2:55 AM50 °FFog.3 mph100%29.95 "Hg2 mi
2:25 AM50 °FFog.3 mph100%29.95 "Hg2 mi
1:55 AM50 °FFog.3 mph100%29.95 "Hg3 mi
1:25 AM50 °FFog.3 mph100%29.95 "Hg3 mi
12:55 AM50 °FFog.5 mph100%29.95 "Hg3 mi
12:25 AM50 °FFog.3 mph100%29.98 "Hg2 mi
11:55 PM
Tue, May 24
50 °FFog.5 mph100%29.95 "Hg1 mi
11:25 PM50 °FFog.5 mph100%29.98 "Hg1 mi
10:55 PM50 °FFog.6 mph100%29.98 "Hg1 mi
10:25 PM50 °FFog.6 mph100%29.98 "Hg1 mi
9:55 PM50 °FFog.5 mph100%29.98 "Hg2 mi
9:25 PM50 °FFog.6 mph100%29.98 "Hg2 mi
8:55 PM50 °FFog.6 mph94%29.98 "Hg3 mi
8:25 PM50 °FLow clouds.8 mph94%29.98 "HgN/A
7:55 PM50 °FLow clouds.8 mph94%29.98 "Hg4 mi
7:25 PM50 °FLow clouds.9 mph94%29.98 "HgN/A
6:55 PM52 °FMostly cloudy.9 mph88%29.98 "Hg4 mi
6:25 PM52 °FLow clouds.12 mph88%29.98 "Hg6 mi
5:55 PM52 °FMostly cloudy.13 mph88%29.98 "HgN/A
5:25 PM52 °FLow clouds.12 mph88%29.98 "Hg6 mi
4:55 PM52 °FMostly cloudy.10 mph88%29.98 "Hg5 mi
4:25 PM52 °FMostly cloudy.13 mph88%29.98 "Hg4 mi
3:55 PM52 °FLow clouds.15 mph88%29.98 "Hg6 mi
3:25 PM52 °FMore clouds than sun.15 mph88%29.98 "HgN/A
2:55 PM50 °FBroken clouds.15 mph94%29.98 "Hg4 mi
2:25 PM50 °FFog.13 mph94%30.01 "Hg3 mi
1:55 PM50 °FFog.12 mph94%30.01 "Hg2 mi
1:25 PM50 °FFog.12 mph94%30.01 "Hg2 mi
Weather by CustomWeather, © 2016

See weather overviewHow to use our weather pages